This is the latest recevied weather packets stored in our database for station/object IW3HBX-13. If no packets are shown the sender has not sent any weather packets the latest 1 day(s).
| Time | Temp. | Humidity | Pressure | Rain* | Wind** | Luminosity | Snow |
|---|---|---|---|---|---|---|---|
| 1777992487 | 13.89° C | 94% | 1014 hPa | 0.51 mm | 1.34 m/s, 75° | 35 W/m² | - |
| 1777992128 | 14.44° C | 94% | 1014.1 hPa | 0.51 mm | 1.79 m/s, 76° | 41 W/m² | - |
| 1777991768 | 13.89° C | 94% | 1014.1 hPa | 0.51 mm | 1.34 m/s, 68° | 49 W/m² | - |
| 1777991048 | 14.44° C | 94% | 1014.2 hPa | 0.51 mm | 0.45 m/s, 77° | 59 W/m² | - |
| 1777990690 | 14.44° C | 94% | 1014.1 hPa | 0.51 mm | 0.89 m/s, 68° | 63 W/m² | - |
| 1777990327 | 14.44° C | 94% | 1014.1 hPa | 0.51 mm | 1.34 m/s, 78° | 128 W/m² | - |
| 1777989969 | 14.44° C | 94% | 1014.2 hPa | 0.51 mm | 1.34 m/s, 57° | 67 W/m² | - |
| 1777989247 | 14.44° C | 93% | 1014.3 hPa | 0 mm | 1.34 m/s, 70° | 51 W/m² | - |
| 1777988888 | 14.44° C | 93% | 1014.4 hPa | 0 mm | 0 m/s | 51 W/m² | - |
| 1777988528 | 14.44° C | 93% | 1014.5 hPa | 0 mm | 0 m/s | 46 W/m² | - |
| 1777988167 | 14.44° C | 93% | 1014.4 hPa | 0.51 mm | 0.45 m/s, 55° | 55 W/m² | - |
| 1777987807 | 14.44° C | 93% | 1014.5 hPa | 0.51 mm | 0.89 m/s, 62° | 45 W/m² | - |
| 1777987447 | 14.44° C | 92% | 1014.4 hPa | 0.51 mm | 0.45 m/s, 70° | 56 W/m² | - |
| 1777987087 | 14.44° C | 92% | 1014.6 hPa | 0.51 mm | 1.79 m/s, 67° | 44 W/m² | - |
| 1777986727 | 15° C | 92% | 1014.6 hPa | 0.51 mm | 0 m/s | 34 W/m² | - |
| 1777986368 | 15° C | 91% | 1014.6 hPa | 0.51 mm | 0.89 m/s, 79° | 37 W/m² | - |
| 1777986368 | 15° C | 91% | 1014.6 hPa | 0.51 mm | 0.89 m/s, 79° | 37 W/m² | - |
| 1777985648 | 15° C | 90% | 1014.7 hPa | 0.51 mm | 0.45 m/s, 84° | 42 W/m² | - |
| 1777985288 | 15° C | 90% | 1014.7 hPa | 0.51 mm | 0 m/s | 75 W/m² | - |
| 1777984930 | 14.44° C | 90% | 1014.7 hPa | 0.51 mm | 0.89 m/s, 84° | 79 W/m² | - |
| 1777984569 | 14.44° C | 89% | 1014.8 hPa | 0 mm | 0.89 m/s, 84° | 56 W/m² | - |
| 1777984209 | 15° C | 89% | 1014.7 hPa | 0 mm | 0.45 m/s, 65° | 57 W/m² | - |
| 1777983847 | 14.44° C | 88% | 1014.8 hPa | 0 mm | 0.89 m/s, 58° | 71 W/m² | - |
| 1777983487 | 15° C | 87% | 1014.9 hPa | 0 mm | 1.34 m/s, 65° | 43 W/m² | - |
| 1777983128 | 15° C | 86% | 1014.8 hPa | 0 mm | 2.24 m/s, 68° | 50 W/m² | - |
* Rain latest hour (hover to see other rain measurements)
** Current wind speed in m/s (hover to see current wind gust speed)